Location: Passau
(48.5830°N, 13.4830°E)
Time: 21:21:49
(UTC+02:00)

Vanguard 3 - All Passes

Search period start: 27 July 2021 00:00
Search period end: 06 August 2021 00:00
Orbit: 508 x 3261 km, 33.4° (Epoch: 26 July)

Date Brightness Start Highest point End Pass type
(mag) Time Alt. Az. Time Alt. Az. Time Alt. Az.
27 Jul - 01:27:53 10° W 01:43:23 33° SSW 01:54:53 10° SSE visible
27 Jul - 03:50:48 10° WSW 03:54:16 11° SW 03:57:26 10° SW visible
27 Jul - 17:36:38 10° S 17:46:17 19° SE 17:57:20 10° E daylight
27 Jul - 19:43:30 10° SW 19:58:52 39° SSE 20:15:47 10° E daylight
27 Jul - 21:55:31 10° WSW 22:13:29 49° S 22:30:05 10° ESE visible
28 Jul - 00:10:27 10° W 00:28:01 42° SSW 00:41:46 10° SE visible
28 Jul - 02:28:36 10° W 02:40:18 21° SW 02:49:31 10° S visible
28 Jul - 18:30:19 10° SSW 18:43:17 30° SE 18:58:39 10° E daylight
28 Jul - 20:40:20 10° SW 20:57:03 46° SSE 21:14:35 10° ESE daylight
28 Jul - 22:53:50 10° WSW 23:11:58 47° S 23:27:43 10° SE visible
29 Jul - 01:10:03 10° W 01:25:37 32° SW 01:37:47 10° SSE visible
29 Jul - 03:35:32 10° WSW 03:36:37 10° SW 03:37:41 10° SW visible
29 Jul - 17:18:43 10° S 17:28:25 20° SE 17:40:02 10° E daylight
29 Jul - 19:26:06 10° SW 19:40:55 40° SSE 19:58:16 10° E daylight
29 Jul - 21:38:01 10° WSW 21:55:33 49° S 22:12:50 10° ESE visible
29 Jul - 23:52:43 10° W 00:10:09 40° SSW 00:24:38 10° SE visible
30 Jul - 02:11:01 10° W 02:22:33 20° SW 02:32:02 10° S visible
30 Jul - 16:13:16 10° SE 16:14:17 10° SE 16:15:18 10° ESE daylight
30 Jul - 18:12:54 10° SSW 18:25:24 31° SE 18:41:01 10° E daylight
30 Jul - 20:23:01 10° SW 20:39:06 47° S 20:57:07 10° ESE daylight
30 Jul - 22:36:18 10° WSW 22:54:02 47° SSW 23:10:28 10° SE visible
31 Jul - 00:52:21 10° W 01:07:45 30° SW 01:20:27 10° SSE visible
31 Jul - 17:01:09 10° S 17:10:37 21° SE 17:22:30 10° E daylight
31 Jul - 19:08:53 10° SW 19:23:01 41° SSE 19:40:36 10° E daylight
31 Jul - 21:20:41 10° WSW 21:37:36 49° S 21:55:23 10° ESE visible
31 Jul - 23:35:09 10° W 23:52:12 39° SSW 00:07:19 10° SE visible
01 Aug - 01:53:39 10° W 02:04:43 19° SW 02:14:14 10° S visible
01 Aug - 15:53:14 10° SE 15:56:35 11° SE 16:00:16 10° ESE daylight
01 Aug - 17:55:44 10° SSW 18:07:35 33° SSE 18:23:14 10° E daylight
01 Aug - 20:05:52 10° WSW 20:21:12 48° S 20:39:29 10° ESE daylight
01 Aug - 22:18:55 10° WSW 22:36:05 45° SSW 22:53:02 10° SE visible
02 Aug - 00:34:50 10° W 00:49:49 28° SW 01:02:54 10° SSE visible
02 Aug - 16:43:50 10° S 16:52:56 22° SE 17:04:49 10° E daylight
02 Aug - 18:51:51 10° SW 19:05:12 42° SSE 19:22:47 10° E daylight
02 Aug - 21:03:31 10° WSW 21:19:40 49° S 21:37:48 10° ESE visible
02 Aug - 23:17:43 10° W 23:34:13 37° SSW 23:49:46 10° SSE visible
03 Aug - 01:36:33 10° W 01:46:49 17° SW 01:56:03 10° SSW visible
03 Aug - 15:34:59 10° SE 15:39:01 12° SE 15:43:36 10° ESE daylight
03 Aug - 17:38:45 10° SSW 17:49:53 34° SSE 18:05:20 10° E daylight
03 Aug - 19:48:52 10° WSW 20:03:21 48° S 20:21:42 10° ESE daylight
03 Aug - 22:01:41 10° W 22:18:07 44° SSW 22:35:24 10° SE visible
04 Aug - 00:17:30 10° W 00:31:51 26° SW 00:45:04 10° S visible
04 Aug - 16:26:46 10° S 16:35:21 23° SE 16:47:00 10° E daylight
04 Aug - 18:34:59 10° SW 18:47:29 43° SSE 19:04:50 10° E daylight
04 Aug - 20:46:29 10° WSW 21:01:47 47° S 21:20:02 10° ESE visible
04 Aug - 23:00:29 10° W 23:16:14 35° SSW 23:31:59 10° SSE visible
05 Aug - 01:19:53 10° WSW 01:28:53 15° SW 01:37:20 10° SSW visible
05 Aug - 15:17:19 10° SSE 15:21:32 13° SE 15:26:30 10° ESE daylight
05 Aug - 17:21:55 10° SSW 17:32:18 34° SSE 17:47:20 10° E daylight
05 Aug - 19:32:01 10° WSW 19:45:36 47° S 20:03:46 10° ESE daylight
05 Aug - 21:44:37 10° W 22:00:11 42° SSW 22:17:35 10° SE visible
